TimeCDT,TemperatureF,Dew PointF,Humidity,Sea Level PressureIn,VisibilityMPH,Wind Direction,Wind SpeedMPH,Gust SpeedMPH,PrecipitationIn,Events,Conditions,WindDirDegrees,DateUTC
12:54 AM,50.0,34.0,54,29.61,10.0,SSW,15.0,-,N/A,,Clear,210,2012-10-13 05:54:00
1:54 AM,48.9,34.0,56,29.61,10.0,SSW,13.8,-,N/A,,Clear,210,2012-10-13 06:54:00
2:54 AM,48.0,34.0,58,29.61,10.0,SSW,16.1,-,N/A,,Clear,210,2012-10-13 07:54:00
3:54 AM,46.0,34.0,63,29.61,10.0,SW,8.1,-,N/A,,Clear,230,2012-10-13 08:54:00
4:54 AM,45.0,34.0,65,29.61,10.0,WSW,8.1,-,N/A,,Clear,240,2012-10-13 09:54:00
5:54 AM,43.0,34.0,71,29.62,10.0,SW,6.9,-,N/A,,Clear,230,2012-10-13 10:54:00
6:54 AM,46.0,35.1,66,29.64,10.0,West,8.1,-,N/A,,Clear,280,2012-10-13 11:54:00
7:54 AM,45.0,35.1,68,29.67,10.0,West,8.1,-,N/A,,Clear,280,2012-10-13 12:54:00
8:54 AM,46.0,36.0,68,29.70,10.0,West,10.4,-,N/A,,Clear,270,2012-10-13 13:54:00
9:54 AM,48.0,37.0,66,29.73,10.0,WNW,13.8,-,N/A,,Clear,300,2012-10-13 14:54:00
10:54 AM,48.0,36.0,63,29.74,10.0,NW,11.5,-,N/A,,Clear,310,2012-10-13 15:54:00
11:54 AM,52.0,36.0,54,29.75,10.0,NW,12.7,-,N/A,,Clear,310,2012-10-13 16:54:00
12:54 PM,54.0,35.1,49,29.77,10.0,WNW,12.7,-,N/A,,Clear,300,2012-10-13 17:54:00
1:54 PM,57.9,35.1,42,29.76,10.0,NW,15.0,20.7,N/A,,Clear,320,2012-10-13 18:54:00
2:54 PM,59.0,35.1,41,29.77,10.0,NW,15.0,-,N/A,,Clear,310,2012-10-13 19:54:00
3:54 PM,60.1,35.1,39,29.79,10.0,NW,12.7,20.7,N/A,,Clear,310,2012-10-13 20:54:00
4:54 PM,57.0,36.0,45,29.81,10.0,WNW,10.4,-,N/A,,Clear,300,2012-10-13 21:54:00
5:54 PM,55.9,36.0,47,29.83,10.0,WNW,10.4,-,N/A,,Clear,300,2012-10-13 22:54:00
6:54 PM,51.8,33.8,50,29.84,10.0,NNW,8.1,-,N/A,,Clear,340,2012-10-13 23:54:00
7:54 PM,46.0,34.0,63,29.89,10.0,NW,5.8,-,N/A,,Clear,310,2012-10-14 00:54:00
8:54 PM,44.6,33.8,66,29.88,10.0,West,5.8,-,N/A,,Clear,280,2012-10-14 01:54:00
9:54 PM,44.1,35.1,71,29.94,10.0,WSW,4.6,-,N/A,,Clear,240,2012-10-14 02:54:00
10:54 PM,41.0,33.8,76,29.91,10.0,WSW,3.5,-,N/A,,Clear,250,2012-10-14 03:54:00
11:54 PM,37.4,33.8,87,29.92,10.0,SW,5.8,-,N/A,,Clear,230,2012-10-14 04:54:00